Location: Belfast
(54.5830°N, 5.9330°W)
Time: 14:09:22
(UTC+01:00)

ISS - Pass Details

Date: 24 May 2017
Orbit: 402 x 408 km, 51.6° (Epoch: 26 May)

Event Time Altitude Azimuth Distance (km) Brightness Sun altitude
Rises 22:26:32 0° 203° (SSW) 2,325 -0.2 -5.8°
Reaches altitude 10° 22:29:23 10° 176° (S) 1,467 -1.5 -6.1°
Maximum altitude 22:31:07 14° 144° (SE) 1,269 -2.0 -6.2°
Drops below altitude 10° 22:32:50 10° 113° (ESE) 1,470 -1.5 -6.4°
Sets 22:35:41 0° 86° (E) 2,333 -0.3 -6.7°
